Home   Weather   Filderstadt   Past weeks

Flag for Germany Past Weather in Filderstadt, Baden-Württemberg, Germany — Yesterday and Last 2 Weeks

Now
43 °F

Broken clouds.


Feels Like: 41 °F
Forecast: 36 / 50 °F
Wind: 3 mph from East

Location: Stuttgart-Echterdingen

Current Time: Apr 27, 2017 at 7:07:44 pm

Latest Report: Apr 27, 2017 at 6:50 pm


Visibility: N/A

Pressure: 29.92 "Hg

Humidity: 81%

Dew Point: 37 °F

Location of FilderstadtLocation

Past Weather in Filderstadt — Graph

°F

Filderstadt Temperature Yesterday

Maximum temperature yesterday: 43 °F (at 2:20 pm)
Minimum temperature yesterday: 36 °F (at 4:50 am)
Average temperature yesterday: 39 °F

High & Low Weather Summary for the Past Weeks

 TemperatureHumidityPressure
High66 °F (Apr 12, 5:20 pm)100% (Apr 18, 9:20 pm)30.54 "Hg (Apr 18, 9:20 pm)
Low27 °F (Apr 20, 5:20 am)27% (Apr 21, 4:50 pm)29.74 "Hg (Apr 25, 2:20 am)
Average44 °F70%30.10 "Hg
* Reported Apr 12 5:20 pm — Apr 27 5:50 pm, Filderstadt, Weather by CustomWeather, © 2017

Note: Actual official high and low records may vary slightly from our data, if they occured in-between our weather recording intervals... More about our weather records

Advertising

Filderstadt Weather History for the Previous 24 Hours

Scroll right to see more
 ConditionsComfort  
Time TempWeatherWind HumidityBarometerVisibility
5:50 pm
Thu, Apr 27
45 °FPartly sunny.2 mph76%29.92 "HgN/A
5:20 pm45 °FBroken clouds.5 mph71%29.95 "HgN/A
4:50 pm45 °FBroken clouds.3 mph76%29.95 "HgN/A
4:20 pm45 °FBroken clouds.3 mph71%29.95 "HgN/A
3:50 pm43 °FBroken clouds.3 mph81%29.95 "HgN/A
2:50 pm43 °FPartly sunny.5 mph76%29.95 "HgN/A
2:20 pm41 °FPartly sunny.5 mph81%29.95 "HgN/A
1:50 pm41 °FPartly sunny.3 mph87%29.95 "HgN/A
1:20 pm39 °FPartly sunny.7 mph93%29.95 "HgN/A
12:50 pm39 °FPartly sunny.7 mph87%29.95 "HgN/A
12:20 pm39 °FPartly sunny.8 mph93%29.95 "HgN/A
11:50 am39 °FLight rain. Partly sunny.7 mph93%29.95 "Hg5 mi
11:20 am39 °FLight rain. Partly sunny.8 mph87%29.95 "Hg5 mi
10:50 am39 °FLight rain. Partly sunny.10 mph87%29.98 "Hg5 mi
10:20 am37 °FLight rain. Partly sunny.7 mph93%29.95 "Hg5 mi
9:50 am37 °FLight rain. Partly sunny.5 mph93%29.95 "Hg5 mi
9:20 am37 °FLight rain. Partly sunny.7 mph93%29.95 "Hg4 mi
8:50 am37 °FLight rain. Partly sunny.6 mph93%29.95 "Hg4 mi
8:20 am37 °FLight rain. Partly sunny.8 mph93%29.95 "Hg4 mi
7:50 am37 °FLight rain. Partly sunny.6 mph93%29.92 "Hg3 mi
6:50 am36 °FLight rain. Partly sunny.7 mph100%29.92 "Hg3 mi
5:50 am37 °FRain. Passing clouds.5 mph93%29.89 "Hg4 mi
4:50 am37 °FLight rain. Passing clouds.7 mph93%29.89 "Hg4 mi
3:50 am37 °FRain. Partly cloudy.7 mph93%29.89 "Hg4 mi
3:20 am39 °FLight rain. Partly cloudy.5 mph93%29.89 "Hg4 mi
2:50 am37 °FLight rain. Partly cloudy.9 mph93%29.89 "Hg4 mi
2:20 am39 °FLight rain. Partly cloudy.9 mph87%29.89 "Hg4 mi
1:50 am39 °FLight rain. Partly cloudy.9 mph93%29.89 "Hg4 mi
12:50 am39 °FLight rain. Partly cloudy.9 mph93%29.89 "Hg4 mi
11:50 pm
Wed, Apr 26
41 °FLight rain. Partly cloudy.5 mph93%29.89 "Hg5 mi
11:20 pm41 °FLight rain. Partly cloudy.3 mph87%29.89 "HgN/A
10:50 pm41 °FLight rain. Partly cloudy.2 mph87%29.89 "HgN/A
10:20 pm41 °FLight rain. Partly cloudy.3 mph87%29.89 "HgN/A
9:50 pm41 °FLight rain. Partly cloudy.1 mph87%29.89 "HgN/A
8:50 pm41 °FPassing clouds.1 mph87%29.86 "HgN/A
8:20 pm41 °FPartly sunny.2 mph87%29.86 "HgN/A
7:50 pm41 °FPartly sunny.2 mph87%29.86 "HgN/A
7:20 pm41 °FLight rain. Broken clouds.1 mph87%29.86 "HgN/A
Weather by CustomWeather, © 2017

See weather overviewHow to use our weather pages